Location: Albany
(35.0000°S, 118.0000°E)
Time: 06:17:20
(UTC-04:00)

CZ-4B R/B - Visible Passes

Search period start: 01 October 2014 00:00
Search period end: 11 October 2014 00:00
Orbit: 495 x 673 km, 97.6° (Epoch: 30 September)

Date Brightness Start Highest point End Pass type
(mag) Time Alt. Az. Time Alt. Az. Time Alt. Az.
01 Oct 4.9 16:04:53 15° SSW 16:04:53 15° SSW 16:05:40 10° SSW visible
02 Oct 6.1 14:34:35 11° SE 14:34:35 11° SE 14:34:53 10° SE visible
02 Oct 4.8 16:10:59 15° SW 16:10:59 15° SW 16:11:49 10° SSW visible
03 Oct 5.9 14:40:40 13° SE 14:40:40 13° SE 14:41:35 10° SE visible
03 Oct 4.7 16:17:05 15° SW 16:17:05 15° SW 16:17:55 10° SW visible
04 Oct 5.6 14:46:46 16° SE 14:46:46 16° SE 14:48:10 10° SSE visible
04 Oct 4.7 16:23:10 14° SW 16:23:10 14° SW 16:23:58 10° SW visible
05 Oct 5.4 14:52:50 19° SE 14:52:50 19° SE 14:54:39 10° SSE visible
05 Oct 4.8 16:29:15 13° SW 16:29:15 13° SW 16:29:57 10° SW visible
06 Oct 5.1 14:58:54 22° SE 14:58:54 22° SE 15:01:04 10° SSE visible
06 Oct 4.8 16:35:19 12° WSW 16:35:19 12° WSW 16:35:52 10° SW visible
07 Oct 4.7 15:04:58 27° SE 15:04:58 27° SE 15:07:27 10° SSE visible
07 Oct 4.9 16:41:22 11° WSW 16:41:22 11° WSW 16:41:38 10° WSW visible
08 Oct 4.4 15:11:01 32° SE 15:11:01 32° SE 15:13:47 10° S visible
09 Oct 3.9 15:17:04 40° SE 15:17:04 40° SE 15:20:05 10° S visible
10 Oct 3.5 15:23:06 50° SE 15:23:06 50° SE 15:26:21 10° S visible
